Volver al catálogo

COSMOS 2242

ActivoMilitarPO
NORAD 22626·PAYLOAD·🇷🇺 Russia

Lanzado Apr 16, 1993 desde Plesetsk Cosmodrome

Loading…

Próximos Pases (próximas 24 horas)

TLE

ActualizadoSource: Space-Track

Época: Sep 14, 2026, 19:32 UTC

1 22626U 93024A   26257.81455439  .00001186  00000-0  10021-3 0  9990
2 22626  82.5151  85.7719 0016947  33.2464 326.9819 14.97127195808682

Sigue COSMOS 2242 en tiempo real con AllMySat

Download on the App Store